Location: Newark
(48.0000°N, 67.0000°E)
Time: 04:14:29
(UTC+00:00)

DUCHIFAT 1 - Pass Details

Date: 06 April 2020
Orbit: 586 x 604 km, 97.9° (Epoch: 27 May)

Event Time Altitude Azimuth Distance (km) Brightness Sun altitude
Rises 19:44:16 0° 28° (NNE) 2,837 ? -35.1°
Reaches altitude 10° 19:47:03 10° 48° (NE) 1,926 ? -35.1°
Enters shadow 19:47:09 10° 49° (NE) 1,900 ? -35.1°
